Погода в Ясне

Россия / Псковская область     57°36′52″N   29°27′53″E
темп.,
°C
ветер,
м/с
пор.,
м/с
влажн.,
%
обл.,
%
осадки,
мм/ч
давл.,
гПа
погр.,
м
23 октября, сб
сб2300:00+5юз61491100 1.4 9931370
03:00+5зюз499498 4.0 9941038
06:00+3зюз4128979 0.7 995555
09:00+3юз5128754 0.7 997729
12:00+3зюз51196100 0.3 999706
15:00+3з5996100 0.9 1001717
18:00+2з51296100 1.6 1003778
21:00+3сз51096100 2.4 1007966
24 октября, вс
вс2400:00+2сз598791 0.2 1011844
03:00+2сз51079100 0.3 1014979
06:00+2сз5108799 0.1 10171092
09:000зсз499195 0.3 1020638
12:00+2сз467592 0.0 1023976
15:00+2сз3770100 0.1 10251286
18:00+1зсз378397 0.1 1026378
21:000з248778 0.1 1027133
25 октября, пн
пн2500:00−1юз268768 0.0 1027171
03:000ююз31082100 0.0 1027285
06:00+1ююз51488100 0.0 1025442
09:00+2юз5149180 0.0 1024482
12:00+4юз51486100 0.0 1023589
15:00+6юз6137810 0.0 1022748
18:00+5юз514805 0.0 1021600
21:00+4юз6158253 0.0 1020546
26 октября, вт
вт2600:00+3юз51584100 0.0 1020517
03:00+3юз51484100 0.0 1018463
06:00+3юз5148399 0.0 1017439
09:00+3юз51383100 0.0 1016437
12:00+5юз51275100 0.0 1016485
15:00+7юз41173100 0.0 1015579
18:00+5юз51280100 0.0 1015451
21:00+5юз51283100 0.0 1014429
27 октября, ср
ср2700:00+5юз41292100 0.7 1013432
03:00+5юз41097100 3.0 1012477
06:00+6зюз41196100 2.9 1011643
09:00+7з4988100 2.9 1012846
12:00+8зюз5983100 0.0 1013991
15:00+7зсз488489 0.2 10141003
18:00+6з498469 0.0 1016421
21:00+5з310935 0.0 1018300